This is the latest recevied weather packets stored in our database for station/object K5KHP. If no packets are shown the sender has not sent any weather packets the latest 10 day(s).
| Time | Temp. | Humidity | Pressure | Rain* | Wind** | Luminosity | Snow |
|---|---|---|---|---|---|---|---|
| 1777852829 | 18.33° C | 64% | 1012.4 hPa | 0 mm | - | 166 W/m² | - |
| 1777852527 | 18.33° C | 65% | 1012.1 hPa | 0 mm | - | 196 W/m² | - |
| 1777852223 | 18.33° C | 65% | 1012.3 hPa | 0 mm | - | 193 W/m² | - |
| 1777851921 | 18.33° C | 65% | 1012.1 hPa | 0 mm | - | 229 W/m² | - |
| 1777851619 | 18.33° C | 65% | 1012.3 hPa | 0 mm | - | 244 W/m² | - |
| 1777851315 | 18.33° C | 66% | 1012.1 hPa | 0 mm | - | 196 W/m² | - |
| 1777851011 | 18.33° C | 65% | 1012.1 hPa | 0 mm | - | 173 W/m² | - |
| 1777850708 | 18.33° C | 66% | 1012.1 hPa | 0 mm | - | 206 W/m² | - |
| 1777850406 | 18.33° C | 65% | 1012.5 hPa | 0 mm | - | 235 W/m² | - |
| 1777850104 | 18.33° C | 66% | 1012.3 hPa | 0 mm | - | 298 W/m² | - |
| 1777849800 | 18.89° C | 65% | 1012.1 hPa | 0 mm | - | 330 W/m² | - |
| 1777849496 | 19.44° C | 65% | 1012.5 hPa | 0 mm | - | 276 W/m² | - |
| 1777849194 | 18.89° C | 66% | 1012.6 hPa | 0 mm | - | 305 W/m² | - |
| 1777848891 | 18.33° C | 67% | 1012.5 hPa | 0 mm | - | 274 W/m² | - |
| 1777848586 | 18.33° C | 67% | 1012.5 hPa | 0 mm | - | 254 W/m² | - |
| 1777848283 | 18.33° C | 67% | 1012.5 hPa | 0 mm | - | 246 W/m² | - |
| 1777847981 | 18.33° C | 67% | 1012.7 hPa | 0 mm | - | 225 W/m² | - |
| 1777847679 | 17.78° C | 66% | 1012.6 hPa | 0 mm | - | 273 W/m² | - |
| 1777847374 | 17.78° C | 67% | 1012.8 hPa | 0 mm | - | 214 W/m² | - |
| 1777847073 | 18.33° C | 66% | 1012.8 hPa | 0 mm | - | 206 W/m² | - |
| 1777846771 | 18.33° C | 65% | 1013 hPa | 0 mm | - | 238 W/m² | - |
| 1777846469 | 18.33° C | 66% | 1013 hPa | 0 mm | - | 338 W/m² | - |
| 1777846165 | 18.33° C | 66% | 1013.2 hPa | 0 mm | - | 240 W/m² | - |
| 1777845861 | 17.78° C | 65% | 1013.2 hPa | 0 mm | - | 212 W/m² | - |
| 1777845559 | 18.33° C | 65% | 1013.1 hPa | 0 mm | - | 240 W/m² | - |
* Rain latest hour (hover to see other rain measurements)
** Current wind speed in m/s (hover to see current wind gust speed)